Hourly Data Report for October 28, 2014

All times are specified in Local Standard Time (LST). Add 1 hour to adjust for Daylight Saving Time where and when it is observed.

KUGAARUK CLIMATE
NUNAVUT

68°32'15.060" N
89°47'47.020" W
15.80 m
2303094
71407
NBB

Download Data

Hourly Data (October 2014)
Hourly Data Report for October 28, 2014
Temp Definition
°C
Dew Point Temp Definition
°C
Rel Hum Definition
%
Wind Dir Definition
10's deg

Wind Spd Definition
km/h
Visibility Definition
km
Stn Press Definition
kPa
Hmdx Definition


Wind Chill Definition


Weather Definition


TIME
00:00 -9.4 -10.6 92 25 10   101.37   -15 LegendNANA
01:00 -8.9 -10.1 91 26 13   101.35   -15 LegendNANA
02:00 -8.8 -10.0 91 25 16   101.36   -16 LegendNANA
03:00 -8.7 -10.0 91 26 12   101.35   -14 LegendNANA
04:00 -8.8 -10.1 91 26 12   101.35   -14 LegendNANA
05:00 -8.9 -10.1 91 24 13   101.33   -15 LegendNANA
06:00 -8.9 -10.1 91 26 11   101.32   -14 LegendNANA
07:00 -8.8 -10.0 91 25 12   101.31   -14 LegendNANA
08:00 -8.5 -9.8 90 25 9   101.31   -13 LegendNANA
09:00 -8.3 -9.8 89 26 10   101.32   -13 LegendNANA
10:00 -8.0 -10.6 81 31 18   101.32   -15 LegendNANA
11:00 -8.8 -11.7 79 30 26   101.33   -17 LegendNANA
12:00 -9.2 -11.9 81 30 18   101.37   -16 LegendNANA
13:00 -9.8 -12.7 79 28 23   101.40   -18 LegendNANA
14:00 -10.2 -12.5 83 26 26   101.41   -19 LegendNANA
15:00 -10.7 -12.8 85 26 23   101.43   -19 LegendNANA
16:00 -11.7 -13.8 85 25 26   101.41   -21 LegendNANA
17:00 -12.0 -14.3 83 25 25   101.43   -21 LegendNANA
18:00 -12.6 -15.2 81 26 22   101.43   -22 LegendNANA
19:00 -12.7 -15.0 83 25 21   101.43   -21 LegendNANA
20:00 -12.9 -15.2 83 27 19   101.43   -21 LegendNANA
21:00 -13.0 -15.6 81 27 23   101.40   -22 LegendNANA
22:00 -13.9 -16.2 83 25 20   101.44   -23 LegendNANA
23:00 -14.6 -16.7 84 24 18   101.42   -23 LegendNANA

Notes on Data Quality.

Legend

  • E = Estimated
  • M = Missing
  • NA = Not Available
  • ‡ = Partner data that is not subject to review by the National Climate Archives
Date modified: